Weather History for KNTU - July, 2013

Change the Weather History Date:

Monday, July 22, 2013

  Actual Average Record
Temperature  
Mean Temperature 82 °F -  
Max Temperature 88 °F 83 °F 100 °F (2011)
Min Temperature 77 °F 68 °F 64 °F (2000)
Cooling Degree Days 18    
Growing Degree Days 32 (Base 50)    
Moisture  
Dew Point 75 °F    
Average Humidity 84    
Maximum Humidity 94    
Minimum Humidity 69    
Precipitation  
Precipitation 0.34 in - - ()
Sea Level Pressure  
Sea Level Pressure 29.88 in    
Wind  
Wind Speed 7 mph (SSW)    
Max Wind Speed 15 mph    
Max Gust Speed 17 mph    
Visibility 8 miles    
Events Rain , Thunderstorm    
Averages and records for this station are not official NWS values.
T = Trace of Precipitation, MM = Missing Value Source: NWS Daily Summary

Daily Weather History Graph

Daily Weather History Graph

Search for Another Location

Airport or City:

Trip Planner

Search our weather history database for the weather conditions in past years. The results will help you decide how hot, cold, wet, or windy it might be!

Date:

Astronomy

Jul. 22, 2013 Rise Set
Actual Time 6:02 AM EDT 8:18 PM EDT
Civil Twilight 5:32 AM EDT 8:48 PM EDT
Nautical Twilight 4:56 AM EDT 9:24 PM EDT
Astronomical Twilight 4:17 AM EDT 10:03 PM EDT
Moon 8:05 PM EDT (7/22) 5:54 AM EDT (7/22)
Length of Visible Light 15h 15m
Length of Day
14h 16m
Full, 100% of the Moon is Illuminated
Jul 22
Full
Jul 22
Full
Jul 29
Last Quarter
Aug 6
New
Aug 14
First Quarter

Hourly Weather History & Observations

Time (EDT) Temp. Heat Index Dew Point Humidity Pressure Visibility Wind Dir Wind Speed Gust Speed Precip Events Conditions
12:56 AM 80.1 °F 84.5 °F 73.9 °F 81% 29.94 in 10.0 mi SW 10.4 mph - N/A   Mostly Cloudy
1:56 AM 80.1 °F 84.5 °F 73.9 °F 81% 29.94 in 10.0 mi SSW 10.4 mph - N/A   Mostly Cloudy
2:50 AM 80.6 °F 86.2 °F 75.2 °F 84% 29.92 in 10.0 mi SW 8.1 mph - 0.00 in Rain Light Rain
2:56 AM 79.0 °F - 75.0 °F 88% 29.93 in 10.0 mi SW 10.4 mph - 0.00 in Rain Light Rain
3:24 AM 78.8 °F - 75.2 °F 89% 29.91 in 10.0 mi SSW 9.2 mph - 0.00 in   Overcast
3:56 AM 79.0 °F - 75.0 °F 88% 29.91 in 10.0 mi SW 6.9 mph - 0.00 in   Overcast
4:56 AM 78.1 °F - 75.0 °F 90% 29.91 in 10.0 mi SW 6.9 mph - N/A   Overcast
5:07 AM 78.8 °F - 75.2 °F 89% 29.90 in 10.0 mi SW 6.9 mph - 0.00 in Rain Light Rain
5:35 AM 77.0 °F - 75.2 °F 94% 29.90 in 3.0 mi West 8.1 mph - 0.13 in Rain Heavy Rain
5:56 AM 77.0 °F - 75.0 °F 94% 29.91 in 3.0 mi Calm Calm - 0.22 in Rain Light Rain
6:19 AM 77.0 °F - 75.2 °F 94% 29.91 in 5.0 mi Calm Calm - 0.00 in   Overcast
6:42 AM 78.8 °F - 75.2 °F 89% 29.91 in 7.0 mi Calm Calm - 0.00 in   Overcast
6:56 AM 78.1 °F - 75.9 °F 93% 29.92 in 7.0 mi Calm Calm - 0.00 in   Overcast
7:26 AM 78.8 °F - 75.2 °F 89% 29.92 in 7.0 mi SW 4.6 mph - 0.00 in Rain Light Rain
7:37 AM 78.8 °F - 75.2 °F 89% 29.92 in 2.5 mi Calm Calm - 0.09 in Rain Rain
7:49 AM 78.8 °F - 75.2 °F 89% 29.93 in 4.0 mi Calm Calm - 0.12 in Rain Light Rain
7:56 AM 78.1 °F - 75.9 °F 93% 29.94 in 4.0 mi South 5.8 mph - 0.12 in Rain Light Rain
8:13 AM 78.8 °F - 75.2 °F 89% 29.94 in 6.0 mi SSE 5.8 mph - 0.00 in   Overcast
8:56 AM 78.1 °F - 75.9 °F 93% 29.95 in 6.0 mi SW 5.8 mph - 0.00 in   Overcast
9:56 AM 80.1 °F 85.4 °F 75.9 °F 87% 29.94 in 5.0 mi SSW 3.5 mph - N/A   Overcast
10:56 AM 82.0 °F 89.4 °F 75.9 °F 82% 29.93 in 7.0 mi SW 4.6 mph - N/A   Mostly Cloudy
11:56 AM 87.1 °F 97.3 °F 75.9 °F 69% 29.91 in 10.0 mi WSW 6.9 mph - N/A   Mostly Cloudy
12:56 PM 88.0 °F 100.2 °F 77.0 °F 70% 29.90 in 10.0 mi SE 9.2 mph - N/A   Mostly Cloudy
1:56 PM 87.1 °F 98.8 °F 77.0 °F 72% 29.88 in 10.0 mi SE 9.2 mph - N/A   Mostly Cloudy
2:56 PM 87.1 °F 98.8 °F 77.0 °F 72% 29.87 in 10.0 mi SSE 15.0 mph - N/A   Mostly Cloudy
3:28 PM 86.0 °F 96.9 °F 77.0 °F 74% 29.85 in 10.0 mi SSE 15.0 mph - N/A Thunderstorm Thunderstorm
3:38 PM 86.0 °F 99.3 °F 78.8 °F 79% 29.84 in 10.0 mi SSE 12.7 mph - 0.00 in Rain , Thunderstorm Light Thunderstorms and Rain
3:46 PM 84.2 °F 94.1 °F 77.0 °F 79% 29.84 in 10.0 mi SSE 9.2 mph 17.3 mph 0.00 in Thunderstorm Thunderstorm
3:56 PM 86.0 °F 96.0 °F 75.9 °F 72% 29.85 in 10.0 mi South 8.1 mph - 0.00 in Thunderstorm Thunderstorm
4:56 PM 82.9 °F 88.8 °F 73.0 °F 72% 29.84 in 10.0 mi South 4.6 mph - 0.00 in Rain , Thunderstorm Light Thunderstorms and Rain
5:37 PM 82.4 °F 88.2 °F 73.4 °F 74% 29.81 in 10.0 mi Variable 5.8 mph - 0.00 in   Mostly Cloudy
5:56 PM 82.9 °F 90.8 °F 75.9 °F 79% 29.81 in 10.0 mi South 5.8 mph - 0.00 in   Mostly Cloudy
6:56 PM 82.9 °F 89.4 °F 73.9 °F 74% 29.82 in 10.0 mi SSW 5.8 mph - N/A   Mostly Cloudy
7:27 PM 82.4 °F 88.2 °F 73.4 °F 74% 29.82 in 10.0 mi Calm Calm - N/A Thunderstorm Thunderstorm
7:56 PM 80.1 °F 85.1 °F 75.0 °F 85% 29.83 in 10.0 mi NW 8.1 mph - N/A Thunderstorm Thunderstorm
8:33 PM 78.8 °F - 75.2 °F 89% 29.83 in 10.0 mi WNW 5.8 mph - N/A   Mostly Cloudy
8:56 PM 78.1 °F - 73.9 °F 87% 29.83 in 10.0 mi WNW 3.5 mph - N/A   Mostly Cloudy
9:56 PM 78.1 °F - 73.9 °F 87% 29.83 in 10.0 mi SSE 6.9 mph - N/A   Mostly Cloudy
10:56 PM 79.0 °F - 73.9 °F 84% 29.83 in 10.0 mi South 3.5 mph - N/A   Mostly Cloudy
11:56 PM 79.0 °F - 75.0 °F 88% 29.82 in 10.0 mi SSW 5.8 mph - N/A   Scattered Clouds